OpenBCM V2.0.3 (Linux)

Packet Radio Mailbox

IZ3LSV

[San Dona' di P. JN]

 Login: GUEST





  
I0OJJ  > AMSAT    11.05.26 10:50l 338 Lines 15966 Bytes #999 (0) @ JNOS
BID : N0_IR0EQ
Read: GUEST
Subj: 2Line Orbital Elemrnents
Path: IZ3LSV<I0OJJ<IR0EQ
Sent: 260511/0838z @:IR0EQ.ITA.EU [Rome] $:N0_IR0EQ

>From i0ojj%ir0eq.ita.eu@i0ojj.ampr.org Mon May 11 10:43:59 2026
Received: from i0ojj.ampr.org by i0ojj.ampr.org (JNOS2.0q.1) with SMTP
	id AA17059172 ; Mon, 11 May 2026 10:43:59 +0200
Message-Id: <N0_IR0EQ@i0ojj.bbs>
>From: i0ojj@ir0eq.ita.eu
X-JNOS-User-Port: Telnet   (i0ojj @ 44.27.18.9)  ->   Sending message

>From i0ojj@rgate.ampr.org Mon May 11 10:38:58 2026
Received: from rgate.ampr.org by rgate.ampr.org (JNOS2.0q.1) with SMTP
	id AA828 ; Mon, 11 May 2026 10:38:58 +0200
Received: by rgate.ampr.org with SMTP
	id AA825 ; Mon, 11 May 2026 10:37:09 +0200
Message-Id: <826@rgate.ampr.org>
>From: i0ojj@rgate.ampr.org

SB KEPS @ AMSAT  $ORB26131.1
2Line Orbital Elements 26131.AMSAT

QST de W1STR

AMSAT Orbital Elements for Amateur Satellites in TLE Format
>From Orbital Analysis Office
New England Sci-Tech STEM Education Center
Natick MA May 11, 2026
To all radio amateurs


These element sets describe the orbits of various satellites 
in use by the amateur radio community. For details see:
www.amsat.org/keplerian-elements-formats/

A daily update of element sets is available at:
www.amsat.org/tle/daily-bulletin.txt
or without bulletin text:
www.amsat.org/tle/dailytle.txt


AO-07
1 07530U 74089B   26130.87869551 -.00000035  00000-0  74057-4 0  9990
2 07530 101.9918 143.7344 0012124 200.6385 226.5786 12.53697432355849
UO-11
1 14781U 84021B   26130.83419936  .00000810  00000-0  88276-4 0  9995
2 14781  97.8035  96.8351 0006460 317.0971  42.9742 14.90693994251562
AO-27
1 22825U 93061C   26130.73029215  .00000054  00000-0  37659-4 0  9992
2 22825  98.6893 198.1539 0007926 202.9696 157.1133 14.30931840701640
FO-29
1 24278U 96046B   26130.60361183 -.00000043  00000-0 -75129-5 0  9996
2 24278  98.5282 344.6156 0349606 193.8122 165.3262 13.53272308468087
GO-32
1 25397U 98043D   26130.83550286  .00000047  00000-0  40697-4 0  9990
2 25397  99.0063 122.6543 0001121  17.1238 342.9977 14.24420966446019
ISS
1 25544U 98067A   26130.71520280  .00006215  00000-0  12011-3 0  9999
2 25544  51.6310 125.5915 0007454  44.6609 315.4979 15.49176858565946
NO-44
1 26931U 01043C   26130.86167984  .00000079  00000-0  60287-4 0  9993
2 26931  67.0515 340.8132 0006305 263.6537  96.3847 14.31941338285104
SO-50
1 27607U 02058C   26130.72927866  .00000748  00000-0  10595-3 0  9998
2 27607  64.5524 244.8702 0075633 269.3097  89.9342 14.82966856258901
CO-55
1 27844U 03031E   26130.87566954  .00000207  00000-0  10844-3 0  9993
2 27844  98.6748 139.9031 0008396 297.4557  62.5768 14.24312132186361
RS-22
1 27939U 03042A   26130.87621794  .00000619  00000-0  10376-3 0  9991
2 27939  98.3475 314.1834 0012006  32.6503 104.1504 14.73400956210052
CO-65
1 32785U 08021C   26130.85602559  .00002757  00000-0  17805-3 0  9993
2 32785  97.8261 111.5143 0009907 146.2097 213.9765 15.09094611979565
CO-66
1 32791U 08021J   26130.77634397  .00011493  00000-0  38060-3 0  9999
2 32791  97.7531 126.9295 0005076  88.9113 271.2709 15.31469835981560
RS-30
1 32953U 08025A   26130.83711846 -.00000044  00000-0 -38500-3 0  9996
2 32953  82.5069  18.6729 0020379  34.9249 325.3163 12.43177798815050
SRMSAT
1 37841U 11058D   26130.77175338  .00000375  00000-0  59685-4 0  9993
2 37841  19.9728 285.9417 0011727 152.0881 354.9912 14.11567351752528
ZACUBE-1
1 39417U 13066B   26130.87674647  .00003148  00000-0  24767-3 0  9996
2 39417  97.8121  93.0117 0042174  18.7408 341.5357 15.00896866675130
Delfi-N3xt
1 39428U 13066N   26130.76008508  .00004857  00000-0  42969-3 0  9995
2 39428  97.8338  51.1171 0074416 332.5910  27.1392 14.94653926669034
GOMX-1
1 39430U 13066Q   26130.80023139  .00001432  00000-0  22158-3 0  9994
2 39430  97.6513 333.6201 0128272 196.9835 162.7059 14.69312729664429
LO-74
1 39440U 13066AA  26130.81481329  .00002532  00000-0  23835-3 0  9990
2 39440  97.8887  79.6502 0058746 149.7828 210.6801 14.93483704671417
AO-73
1 39444U 13066AE  26130.86206292  .00005825  00000-0  36734-3 0  9993
2 39444  97.8257 101.5480 0035662 333.5687  26.3721 15.09001553674030
DTUSAT-2
1 40030U 14033W   26130.71665260  .00004772  00000-0  26287-3 0  9991
2 40030  98.0873 126.0821 0008134  16.7659 343.3839 15.14526372647011
LILACSAT-2
1 40908U 15049K   26130.84741572  .00011594  00000-0  20683-3 0  9992
2 40908  97.4703 166.2975 0007841  44.1347 316.0529 15.50208523589966
Horyu-4
1 41340U 16012D   26130.65330130  .00126567  00000-0  71947-3 0  9993
2 41340  30.9892 350.2294 0005757   4.8021 355.2690 15.77472816564855
Lapan A3
1 41603U 16040E   26130.85389569  .00002601  00000-0  84148-4 0  9998
2 41603  97.1491 128.2353 0011503 141.3371 218.8697 15.32868575549099
CAS-2T
1 41847U 16066G   26130.83779689  .00000524  00000-0  83677-4 0  9998
2 41847  98.3825 206.9965 0340998 242.7994 113.8065 14.44588462499404
TechnoSat
1 42829U 17042E   26130.67983775  .00001469  00000-0  10820-3 0  9997
2 42829  97.4240 289.7817 0016781 218.0197 141.9847 15.04723318481063
AO-91
1 43017U 17073E   26130.62735550  .00006178  00000-0  27209-3 0  9993
2 43017  97.4765 358.6237 0154210  98.2118 263.6635 15.12026891459713
S-Net D
1 43186U 18014G   26130.71902563  .00002911  00000-0  15358-3 0  9999
2 43186  97.5388  35.7487 0009429 138.8194 221.3752 15.16316859453083
S-Net B
1 43187U 18014H   26130.72974856  .00003139  00000-0  16546-3 0  9998
2 43187  97.5393  35.7450 0010117 135.4783 224.7264 15.16287449453080
S-Net A
1 43188U 18014J   26130.65209873  .00002891  00000-0  15248-3 0  9993
2 43188  97.5403  35.8695 0010007 136.1829 224.0199 15.16323114453071
S-Net C
1 43189U 18014K   26130.73342188  .00003258  00000-0  17156-3 0  9998
2 43189  97.5421  36.0193 0011515 130.5221 229.7017 15.16278595451630
Ten-Koh
1 43677U 18084G   26130.77142628  .00000848  00000-0  68398-4 0  9995
2 43677  98.0773 321.5645 0007962 239.2985 120.7455 15.02773353410545
PO-101
1 43678U 18084H   26130.82231801  .00002406  00000-0  19711-3 0  9990
2 43678  98.1098 325.4312 0012114 300.3452  59.6572 15.00266796410619
QO-100
1 43700U 18090A   26130.61650219  .00000154  00000-0  00000+0 0  9993
2 43700   0.0013 317.2880 0001654 126.0347  32.8614  1.00273493 27303
MinXSS-2
1 43758U 18099A   26130.73529679  .00022004  00000-0  47593-3 0  9993
2 43758  97.4547 205.9959 0007703  51.8550 308.3392 15.44469884408345
AO-95
1 43770U 18099N   26130.64225968  .00007668  00000-0  30158-3 0  9999
2 43770  97.4408 191.0471 0010413 118.1140 242.1152 15.25891816407490
SNUSat 2
1 43782U 18099AA  26130.71554910  .00005145  00000-0  23295-3 0  9994
2 43782  97.4089 184.6867 0011832  72.2252 288.0274 15.21257521407337
SnugLite
1 43784U 18099AC  26130.65400435  .00007010  00000-0  27248-3 0  9996
2 43784  97.3899 185.3226 0004306  77.9196 282.2524 15.26353033407593
ITASat 1
1 43786U 18099AE  26130.66560257  .00004267  00000-0  20920-3 0  9999
2 43786  97.4060 182.9346 0014276 120.9576 239.3063 15.18566937407210
EAGLET 1
1 43790U 18099AJ  26130.61459406  .00003044  00000-0  17745-3 0  9995
2 43790  97.4260 181.2810 0012796 113.5030 246.7547 15.12648295406651
ESEO
1 43792U 18099AL  26130.66129932  .00001673  00000-0  12470-3 0  9996
2 43792  97.3995 169.6531 0013320 100.8852 259.3874 15.04125055406166
JO-97
1 43803U 18099AX  26130.75949529  .00010201  00000-0  32764-3 0  9996
2 43803  97.4152 193.4954 0006591  57.3052 302.8824 15.32463368407892
Suomi 100
1 43804U 18099AY  26130.61549253  .00006939  00000-0  25983-3 0  9990
2 43804  97.4213 191.1696 0011185  60.4160 299.8192 15.27547919407688
ISAT
1 43879U 18111D   26130.74947674  .00048674  00000-0  61630-3 0  9991
2 43879  97.5895  63.2824 0008440  88.2362 271.9860 15.59311726405323
UWE-4
1 43880U 18111E   26130.77722838  .00020525  00000-0  45322-3 0  9994
2 43880  97.5851  57.5161 0010722  98.5674 261.6789 15.43842250405008
Sparrow
1 43881U 18111F   26130.76680351  .00069354  00000-0  68984-3 0  9999
2 43881  97.6120  68.3519 0007627 111.1739 249.0336 15.65474442405501
Prox-1
1 44339U 19036A   26130.35676711  .00008553  00000-0  84248-3 0  9990
2 44339  23.9966   6.7671 0006436 315.7941  44.2044 14.89721231367828
Taurus 1
1 44530U 19059C   26130.85344027  .00004212  00000-0  68405-3 0  9990
2 44530  98.6393 293.3845 0009493  74.2012 286.0239 14.71690234353155
TO-108
1 44881U 19093C   26130.81999106  .00000635  00000-0  77843-4 0  9999
2 44881  97.7532 203.9620 0012803 204.5188 155.5421 14.86456642345869
RS-44
1 44909U 19096E   26130.63438889  .00000010  00000-0 -13015-5 0  9999
2 44909  82.5244   4.6626 0216583 232.0309 126.1054 12.79748114297541
SALSAT
1 46495U 20068K   26130.78938910  .00005309  00000-0  18976-3 0  9992
2 46495  97.8864 131.5954 0011587  77.3808 282.8726 15.29244477309647
CSS (TIANHE-1)
1 48274U 21035A   26130.60125779  .00015135  00000-0  17111-3 0  9994
2 48274  41.4669 190.6270 0004392 283.6252  76.4098 15.62120091287297
CUTE
1 49263U 21088D   26130.81434152  .00137742  00000-0  80464-3 0  9992
2 49263  97.4192 226.9617 0001273 293.4196  66.6937 15.77988078256637
TeikyoSat 4
1 49396U 21102B   26130.86465565  .00001013  00000-0  67108-4 0  9995
2 49396  97.3701 161.7975 0013596  65.4374 294.8271 15.09372841247094
Z-Sat
1 49399U 21102E   26130.82513530  .00001843  00000-0  93642-4 0  9993
2 49399  97.3359 167.2842 0017312  23.7456 336.4574 15.17978258247775
KOSEN 1
1 49402U 21102H   26130.64752495  .00004750  00000-0  18538-3 0  9993
2 49402  97.3221 173.5431 0013031 347.7504  12.3416 15.26316687248294
HO-113
1 50466U 21131B   26130.84541970  .00000355  00000-0  12335-3 0  9999
2 50466  98.4951 223.4412 0003675 193.4057 166.7035 14.41321187229730
SNUGLITE 2
1 52899U 22065F   26130.85829948  .00000645  00000-0  13146-3 0  9996
2 52899  98.2152 275.7672 0008459 134.9973 225.1917 14.64276089205539
